Millville, NJ

8:33 AM EDT on October 22, 2019 (GMT -0400)
Millville Municipal

Weather History for KMIV - September, 2019

Change the Weather History Date:

Sunday, September 15, 2019

  Actual Average Record
Temperature  
Mean Temperature 74 °F -  
Max Temperature 86 °F 77 °F 90 °F (1970)
Min Temperature 62 °F 56 °F 39 °F (2013)
Cooling Degree Days 10    
Growing Degree Days 24 (Base 50)    
Moisture  
Dew Point 67 °F    
Average Humidity 80    
Maximum Humidity 94    
Minimum Humidity 36    
Precipitation  
Precipitation 0.12 in - - ()
Sea Level Pressure  
Sea Level Pressure 30.14 in    
Wind  
Wind Speed 2 mph (NW)    
Max Wind Speed 9 mph    
Max Gust Speed -    
Visibility 8 miles    
Events Rain    
Averages and records for this station are not official NWS values.
T = Trace of Precipitation, MM = Missing Value Source: NWS Daily Summary

Daily Weather History Graph

Daily Weather History Graph

Search for Another Location

Airport or City:

Astronomy

Sep. 15, 2019 Rise Set
Actual Time 6:41 AM EDT 7:09 PM EDT
Civil Twilight 6:14 AM EDT 7:36 PM EDT
Nautical Twilight 5:42 AM EDT 8:07 PM EDT
Astronomical Twilight 5:10 AM EDT 8:40 PM EDT
Moon 8:16 PM EDT (9/15) 7:49 AM EDT (9/15)
Length of Visible Light 13h 21m
Length of Day
12h 27m
Full, 98% of the Moon is Illuminated
Sep 15
Full
Sep 21
Last Quarter
Sep 28
New
Oct 5
First Quarter
Oct 13
Full

Hourly Weather History & Observations

Time (EDT) Temp. Heat Index Dew Point Humidity Pressure Visibility Wind Dir Wind Speed Gust Speed Precip Events Conditions
12:54 AM 73.9 °F - 68.0 °F 82% 30.17 in 10.0 mi Calm Calm - N/A   Overcast
1:54 AM 73.0 °F - 68.0 °F 84% 30.17 in 10.0 mi Variable 3.5 mph - N/A   Overcast
2:54 AM 73.0 °F - 68.0 °F 84% 30.17 in 10.0 mi WSW 4.6 mph - N/A   Overcast
3:54 AM 73.0 °F - 69.1 °F 87% 30.16 in 10.0 mi SW 3.5 mph - N/A   Overcast
4:39 AM 73.0 °F - 69.1 °F 87% 30.15 in 10.0 mi Calm Calm - N/A   Overcast
4:54 AM 73.0 °F - 69.1 °F 87% 30.15 in 8.0 mi Calm Calm - N/A   Overcast
5:51 AM 71.6 °F - 69.8 °F 94% 30.16 in 6.0 mi Calm Calm - 0.02 in Rain Light Rain
5:54 AM 72.0 °F - 70.0 °F 93% 30.16 in 7.0 mi Calm Calm - 0.02 in   Overcast
6:01 AM 72.0 °F - 70.0 °F 93% 30.16 in 2.5 mi Calm Calm - 0.04 in Rain Light Rain
6:04 AM 72.0 °F - 70.0 °F 93% 30.15 in 1.8 mi Calm Calm - 0.06 in Rain Rain
6:10 AM 72.0 °F - 70.0 °F 93% 30.16 in 2.0 mi Calm Calm - 0.06 in Rain Light Rain
6:17 AM 72.0 °F - 70.0 °F 93% 30.16 in 10.0 mi Calm Calm - 0.06 in   Overcast
6:49 AM 71.6 °F - 69.8 °F 94% 30.15 in 8.0 mi Calm Calm - 0.06 in   Overcast
6:54 AM 72.0 °F - 70.0 °F 93% 30.15 in 8.0 mi Calm Calm - 0.06 in   Overcast
7:15 AM 72.0 °F - 70.0 °F 93% 30.15 in 4.0 mi North 3.5 mph - 0.01 in Rain Light Rain
7:30 AM 72.0 °F - 70.0 °F 93% 30.15 in 4.0 mi Calm Calm - 0.02 in Rain Light Rain
7:54 AM 73.0 °F - 70.0 °F 90% 30.15 in 8.0 mi Calm Calm - 0.04 in   Overcast
8:43 AM 73.0 °F - 71.1 °F 93% 30.16 in 8.0 mi Calm Calm - N/A   Overcast
8:54 AM 73.0 °F - 71.1 °F 93% 30.16 in 7.0 mi West 3.5 mph - N/A   Overcast
9:29 AM 75.0 °F - 71.1 °F 87% 30.17 in 9.0 mi NW 5.8 mph - N/A   Overcast
9:51 AM 75.2 °F - 71.6 °F 89% 30.17 in 9.0 mi NNW 6.9 mph - N/A   Overcast
9:54 AM 75.0 °F - 70.0 °F 84% 30.17 in 9.0 mi NNW 5.8 mph - N/A   Overcast
9:59 AM 75.9 °F - 71.1 °F 85% 30.16 in 9.0 mi NNW 6.9 mph - N/A   Mostly Cloudy
10:36 AM 78.1 °F - 70.0 °F 76% 30.16 in 10.0 mi North 5.8 mph - N/A   Mostly Cloudy
10:54 AM 78.1 °F - 69.1 °F 74% 30.16 in 10.0 mi Variable 6.9 mph - N/A   Mostly Cloudy
11:43 AM 79.0 °F - 68.0 °F 69% 30.15 in 10.0 mi North 8.1 mph - N/A   Mostly Cloudy
11:54 AM 78.1 °F - 68.0 °F 71% 30.15 in 10.0 mi NNW 9.2 mph - N/A   Mostly Cloudy
12:02 PM 78.1 °F - 68.0 °F 71% 30.15 in 10.0 mi North 8.1 mph - N/A   Scattered Clouds
12:54 PM 79.0 °F - 66.0 °F 64% 30.14 in 10.0 mi NW 9.2 mph - N/A   Mostly Cloudy
1:54 PM 84.0 °F 84.5 °F 62.1 °F 47% 30.11 in 10.0 mi Variable 5.8 mph - N/A   Partly Cloudy
2:54 PM 84.0 °F 84.0 °F 60.1 °F 44% 30.09 in 10.0 mi WNW 4.6 mph - N/A   Clear
3:54 PM 84.9 °F 84.4 °F 59.0 °F 41% 30.08 in 10.0 mi West 8.1 mph - N/A   Clear
4:54 PM 86.0 °F 84.7 °F 55.9 °F 36% 30.09 in 10.0 mi West 6.9 mph - N/A   Clear
5:54 PM 84.0 °F 82.9 °F 55.0 °F 37% 30.08 in 10.0 mi NW 5.8 mph - N/A   Clear
6:54 PM 75.0 °F - 60.1 °F 60% 30.09 in 10.0 mi Calm Calm - N/A   Clear
7:54 PM 69.1 °F - 60.1 °F 73% 30.09 in 10.0 mi Variable 3.5 mph - N/A   Clear
8:54 PM 64.9 °F - 60.1 °F 84% 30.09 in 10.0 mi Calm Calm - N/A   Clear
9:54 PM 64.9 °F - 61.0 °F 87% 30.09 in 10.0 mi Calm Calm - N/A   Clear
10:54 PM 63.0 °F - 61.0 °F 93% 30.09 in 10.0 mi Calm Calm - N/A   Clear
11:54 PM 62.1 °F - 60.1 °F 93% 30.09 in 10.0 mi Calm Calm - N/A   Clear